Location: Ffald-y-Brenin
(52.0833°N, 4.0000°W)
Time: 03:28:51
(UTC+00:00)

Daily predictions for brighter satellites

Satellite Brightness Start Highest point End
(mag) Time Altitude Azimuth Time Altitude Azimuth Time Altitude Azimuth
Cosmos 2369 Rocket 4.4 02:53:23 19° NNE 02:54:29 20° NNE 02:58:40 10° ENE
Cosmos 2344 4.4 02:59:32 45° NNW 02:59:32 45° NNW 03:08:22 10° ENE
Cosmos 2333 Rocket 3.8 03:19:49 29° NNE 03:19:49 29° NNE 03:22:32 10° NNE
ADEOS II 4.3 03:12:54 10° NNE 03:14:19 19° NNE 03:14:19 19° NNE
IDEFIX/ARIANE 42P 4.3 03:18:53 10° NNE 03:21:52 29° NE 03:21:52 29° NE
ATLAS 2AS CENTAUR R/B 4.0 03:26:54 35° NNW 03:27:51 36° N 03:34:50 10° ENE
Cosmos 2322 Rocket 4.2 03:41:37 18° N 03:41:37 18° N 03:44:03 10° NNE
ATLAS CENTAUR R/B 3.8 03:46:18 23° E 03:46:18 23° E 03:48:38 10° ENE
Lacrosse 5 3.5 03:47:38 29° E 03:47:38 29° E 03:50:07 10° ESE
Cosmos 2237 Rocket 3.0 03:48:42 47° NE 03:48:42 47° NE 03:52:44 10° NNE
MSX 4.4 03:48:34 10° NNE 03:54:10 51° E 03:54:27 51° ESE
BREEZE-M DEB (TANK) 4.0 03:54:29 75° S 03:54:45 77° SSE 03:59:28 10° E
Cosmos 2219 Rocket 3.4 03:58:45 34° N 03:58:45 34° N 04:02:13 10° NNE
CZ-2C R/B 4.0 03:52:54 10° NNE 03:57:36 33° E 03:59:16 27° SE
CZ-4C R/B 2.6 04:02:10 62° NE 04:02:10 62° NE 04:07:26 10° NE
ARIANE 5 R/B 4.5 04:01:33 10° N 04:03:04 19° N 04:03:04 19° N
Cosmos 2360 Rocket 4.0 04:10:35 21° NNW 04:10:35 21° NNW 04:13:36 10° NNE
Cosmos 1934 Rocket 3.9 04:07:52 10° N 04:14:12 84° E 04:20:33 10° S
COSMOS 2428 3.8 04:16:33 34° NNW 04:16:33 34° NNW 04:20:31 10° NNE
Cosmos 1943 Rocket 2.7 04:13:11 35° N 04:15:16 54° NE 04:20:39 10° SE
USA 215 3.1 04:15:34 10° ENE 04:22:08 75° NNW 04:22:54 67° WNW
COSMO-SKYMED 1 4.4 04:21:52 10° SE 04:25:38 30° ENE 04:29:25 10° N
SL-16 R/B 2.5 04:28:21 49° SSE 04:29:38 62° ESE 04:35:15 10° NE
Cosmos 1605 Rocket 4.0 04:30:05 10° N 04:36:23 82° E 04:42:33 10° SSE
Cosmos 1980 4.0 04:37:14 53° NNW 04:37:14 53° NNW 04:42:22 10° NNE
Cosmos-2242 4.3 04:41:32 32° N 04:41:32 32° N 04:43:54 10° N
Cosmos 2369 Rocket 2.6 04:35:12 17° NNW 04:39:40 64° NE 04:45:21 10° SE
SL-16 R/B 4.3 04:39:28 13° NNW 04:40:16 13° NNW 04:42:53 10° NNE
Spot 2 4.3 04:38:46 10° NNE 04:42:47 63° E 04:42:47 63° E
NOSS 3-1 (A) 4.1 04:44:10 49° W 04:45:20 52° SW 04:53:30 10° SSE
Nadezhda 3 Rocket 4.2 04:52:20 48° WNW 04:52:20 48° WNW 04:58:27 10° N
Meteor 2-3 Rocket 3.7 04:50:11 10° NNW 04:55:58 84° ENE 05:01:46 10° SSE
ADEOS II 4.1 04:53:51 10° NNW 04:55:15 14° NNW 04:55:15 14° NNW
Cosmos 2333 Rocket 3.6 05:01:49 23° NW 05:01:57 24° NW 05:06:30 10° NNE
IDEFIX/ARIANE 42P 3.3 04:58:37 10° N 05:02:41 35° NW 05:02:41 35° NW
Cosmos 1633 4.4 05:01:17 10° N 05:04:37 32° ENE 05:07:56 10° SE
Cosmos 1484 Rocket 3.7 05:01:38 10° NNE 05:05:28 49° E 05:09:20 10° S
Cosmos 1727 Rocket 4.3 05:00:36 10° S 05:06:43 69° E 05:12:51 10° NNE
Cosmos 2251 Rocket 3.4 05:08:58 41° SW 05:10:48 74° WNW 05:16:09 10° NNE
Cosmos 2173 Rocket 4.5 05:05:49 10° N 05:12:07 63° ENE 05:18:17 10° SSE
SKYMED 2 3.6 05:09:13 10° SSE 05:13:33 78° ENE 05:17:55 10° NNW
PAYLOAD A 3.9 05:08:52 10° N 05:13:36 56° WNW 05:14:39 46° WSW
STARLINK-1153 3.6 05:14:21 48° ENE 05:14:21 48° ENE 05:16:37 10° E
STARLINK-1180 3.6 05:14:33 49° ENE 05:14:33 49° ENE 05:16:52 10° E
STARLINK-1174 3.6 05:15:00 49° ENE 05:15:00 49° ENE 05:17:17 10° E
STARLINK-1139 3.6 05:15:13 49° ENE 05:15:13 49° ENE 05:17:31 10° E
Cosmos 1339 Rocket 4.3 05:08:44 10° SSW 05:14:48 75° WNW 05:20:58 10° N
STARLINK-1133 3.5 05:15:25 50° ENE 05:15:25 50° ENE 05:17:44 10° E
STARLINK-1151 3.5 05:15:40 50° ENE 05:15:40 50° ENE 05:17:59 10° E
NOSS 2-1 (C) 2.9 05:15:15 80° W 05:15:22 82° NW 05:19:18 10° NE
STARLINK-1160 3.5 05:16:18 51° ENE 05:16:18 51° ENE 05:18:39 10° E
STARLINK-1161 3.5 05:16:32 51° ENE 05:16:32 51° ENE 05:18:53 10° E
STARLINK-1145 3.4 05:16:44 52° ENE 05:16:44 52° ENE 05:19:06 10° E
STARLINK-1172 3.4 05:16:57 52° ENE 05:16:57 52° ENE 05:19:19 10° E
STARLINK-1162 3.2 05:17:03 66° NE 05:17:03 66° NE 05:19:55 10° E
STARLINK-1182 3.4 05:17:23 53° ENE 05:17:23 53° ENE 05:19:46 10° E
Cosmos 1500 Rocket 3.5 05:12:32 10° N 05:17:02 89° W 05:21:27 10° S
STARLINK-1164 3.4 05:17:35 53° ENE 05:17:35 53° ENE 05:20:00 10° E
STARLINK-1168 3.4 05:17:49 54° ENE 05:17:49 54° ENE 05:20:13 10° E
STARLINK-1183 3.3 05:18:27 55° ENE 05:18:27 55° ENE 05:20:53 10° E
STARLINK-1181 3.3 05:18:40 55° ENE 05:18:40 55° ENE 05:21:07 10° E
CZ-4B R/B 2.7 05:14:33 10° NNE 05:18:18 79° ESE 05:20:20 25° S
STARLINK-1157 3.1 05:18:51 69° NE 05:18:51 69° NE 05:21:48 10° E
STARLINK-1196 3.3 05:19:20 57° ENE 05:19:20 57° ENE 05:21:49 10° E
STARLINK-1186 3.2 05:19:46 57° NE 05:19:46 57° NE 05:22:16 10° E
NOSS 2-1 (D) 2.9 05:19:13 72° W 05:19:26 75° NW 05:23:23 10° NE
STARLINK-1185 3.2 05:19:58 57° NE 05:19:58 57° NE 05:22:28 10° E
STARLINK-1175 3.2 05:20:12 58° NE 05:20:12 58° NE 05:22:42 10° E
STARLINK-1147 3.2 05:20:24 58° NE 05:20:24 58° NE 05:22:55 10° E
STARLINK-1146 3.2 05:20:36 59° NE 05:20:36 59° NE 05:23:10 10° E
STARLINK-1152 3.2 05:20:50 59° NE 05:20:50 59° NE 05:23:23 10° E
STARLINK-1195 3.1 05:21:03 59° NE 05:21:03 59° NE 05:23:36 10° E
STARLINK-1159 3.0 05:20:51 71° NNE 05:20:51 71° NNE 05:23:54 10° E
ATLAS 2AS CENTAUR R/B 3.9 05:14:19 14° NW 05:20:44 43° NNE 05:27:42 10° E
STARLINK-1137 3.1 05:21:16 60° NE 05:21:16 60° NE 05:23:50 10° E
STARLINK-1142 3.1 05:21:30 60° NE 05:21:30 60° NE 05:24:04 10° E
STARLINK-1127 3.1 05:21:42 60° NE 05:21:42 60° NE 05:24:16 10° E
STARLINK-1184 3.1 05:21:56 61° NE 05:21:56 61° NE 05:24:30 10° E
STARLINK-1193 3.1 05:22:08 61° NE 05:22:08 61° NE 05:24:43 10° E
STARLINK-1194 3.1 05:22:21 62° NE 05:22:21 62° NE 05:24:56 10° E
STARLINK-1171 2.9 05:22:59 73° N 05:22:59 73° N 05:26:05 10° E
Okean O Rocket 3.9 05:19:17 10° NE 05:22:58 26° E 05:26:37 10° SSE
Cosmos 1455 4.1 05:25:32 17° NNW 05:25:32 17° NNW 05:26:46 10° N
ATLAS CENTAUR R/B 1.6 05:22:30 47° W 05:23:34 61° NW 05:27:55 10° NE
STARLINK-1155 2.9 05:24:45 73° N 05:24:46 73° N 05:27:56 10° E
Cosmos 2100 Rocket 4.1 05:19:47 10° N 05:26:04 81° E 05:32:15 10° SSE
Cosmos 2322 Rocket 4.4 05:24:16 10° NNW 05:26:09 11° N 05:28:01 10° NNE
STARLINK-1166 2.8 05:26:53 72° NNW 05:26:59 73° N 05:30:09 10° E
Lacrosse 5 2.3 05:26:51 38° WSW 05:27:54 43° SW 05:32:40 10° SSE
Meteor 1-27 4.2 05:22:40 10° S 05:28:13 83° E 05:33:49 10° NNE
Cosmos 1743 Rocket 3.4 05:24:33 10° NNW 05:28:52 64° W 05:33:07 10° S
STARLINK-1165 2.8 05:28:43 70° NW 05:28:55 73° N 05:32:06 10° E
STARLINK-1149 2.9 05:29:32 61° NE 05:29:32 61° NE 05:31:56 10° E
H-2A R/B 2.5 05:25:33 10° NNE 05:29:53 72° WNW 05:34:00 12° SSW
STARLINK-1169 2.8 05:30:43 66° NW 05:30:59 73° N 05:34:10 10° E
Cosmos 2237 Rocket 3.1 05:30:31 27° WNW 05:31:42 29° NW 05:36:36 10° NNE
STARLINK-1178 2.8 05:32:37 63° NW 05:32:58 72° N 05:36:09 10° E
Meteor 1-31 Rocket 2.7 05:29:36 10° N 05:33:22 57° WNW 05:34:48 33° SW
GEOS 3 Rocket 3.7 05:28:38 10° NE 05:33:58 79° SE 05:38:29 15° SW
STARLINK-1132 2.6 05:34:49 69° N 05:34:50 69° N 05:37:37 10° E
STARLINK-1120 2.9 05:34:28 60° WNW 05:34:53 72° N 05:38:05 10° E
ADEOS 4.1 05:30:44 10° N 05:35:31 37° WNW 05:37:07 30° W
MSX 4.5 05:30:38 10° N 05:35:44 34° WNW 05:37:31 28° W
CZ-2C R/B 2.8 05:31:01 10° N 05:35:57 45° WNW 05:38:39 24° SW
STARLINK-1131 2.9 05:36:36 56° WNW 05:37:07 72° N 05:40:18 10° E
Cosmos 2061 Rocket 4.4 05:30:49 10° N 05:37:08 68° ENE 05:43:19 10° SSE
STARLINK-1150 2.5 05:37:17 68° NNW 05:37:22 69° N 05:40:06 10° E
Cosmos 1356 Rocket 3.7 05:37:24 38° W 05:38:05 41° WNW 05:42:01 10° N
STARLINK-1163 2.5 05:38:34 67° NNW 05:38:43 70° N 05:41:30 10° E
STARLINK-1190 2.9 05:38:38 53° WNW 05:39:14 72° N 05:42:26 10° E
STARLINK-1173 2.5 05:40:14 65° NNW 05:40:26 69° N 05:43:10 10° E
STARLINK-1177 2.5 05:40:37 65° NNW 05:40:49 69° N 05:43:32 10° E
ADEOS Rocket 3.6 05:35:26 10° SSE 05:41:41 67° ENE 05:48:42 10° NNW
STARLINK-1167 2.5 05:41:41 63° NW 05:41:57 70° N 05:44:41 10° E
Cosmos 2219 Rocket 3.9 05:40:28 15° NW 05:42:07 17° NNW 05:45:45 10° NNE
Cosmos 1459 Rocket 3.9 05:36:15 10° N 05:42:26 86° W 05:48:42 10° S
Cosmos 1842 Rocket 3.6 05:41:04 10° SSW 05:45:28 56° WNW 05:49:55 10° N
BREEZE M DEB (TANK) 3.3 05:44:47 32° WSW 05:46:09 61° S 05:53:33 10° ESE
TELKOM 3 3.4 05:46:25 44° SSE 05:46:25 44° SSE 05:48:19 10° ESE
STARLINK-1136 2.6 05:46:27 53° WNW 05:46:57 70° N 05:49:45 10° E
METEOR-M 4.2 05:41:46 10° NNE 05:47:10 80° ESE 05:52:30 10° SSW
Meteor 2-10 Rocket 4.2 05:45:10 25° WSW 05:47:17 34° WNW 05:51:59 10° N
CZ-4C R/B 3.2 05:47:21 22° WNW 05:50:24 37° NNW 05:56:36 10° NE
Cosmos 1725 Rocket 4.4 05:44:32 10° N 05:50:47 67° ENE 05:57:02 10° SSE
Cosmos 2360 Rocket 4.4 05:53:42 10° NNW 05:55:31 11° N 05:57:21 10° N
ALOS 2.2 05:51:23 10° NNE 05:56:05 80° WNW 06:00:45 10° SSW
Cosmos 1869 3.2 05:52:13 10° SSW 05:56:13 79° W 06:00:12 10° N
Cosmos 407 Rocket 3.6 05:51:56 10° SSW 05:57:16 83° ESE 06:02:35 10° NNE
STARLINK-1129 3.0 05:57:12 31° WNW 05:58:36 74° N 06:01:50 10° E
Cosmos 921 Rocket 3.1 05:54:21 10° NNW 05:58:42 54° WSW 06:02:58 10° S
Cosmos 1943 Rocket 2.8 05:54:46 14° NW 05:58:47 32° WSW 06:03:34 10° SSW
Cosmos 1802 Rocket 4.0 05:53:37 10° NNW 06:00:04 79° W 06:06:30 10° S
STARLINK-1134 3.0 05:59:02 29° WNW 06:00:31 74° N 06:03:46 10° E
Cosmos 1140 Rocket 3.9 05:56:05 10° SSW 06:01:16 67° ESE 06:06:30 10° NNE
COSMO-SKYMED 1 3.0 05:57:39 10° SSW 06:01:43 38° W 06:05:48 10° NNW
USA 116 3.1 05:58:47 10° S 06:01:54 54° WSW 06:04:58 10° NNW
SJ-12 3.9 05:57:58 10° N 06:02:05 67° WNW 06:06:12 10° SSW
STARLINK-1135 3.0 06:01:19 27° WNW 06:02:54 75° N 06:06:08 10° E
Cosmos 1633 Rocket 3.6 06:00:17 10° N 06:04:38 61° ENE 06:08:58 10° SSE
USA 215 3.6 05:58:27 10° ENE 06:04:51 59° N 06:10:15 15° WNW
STARLINK-1141 3.0 06:03:27 26° WNW 06:05:07 75° N 06:08:21 10° E
Cosmos 1980 Rocket 4.5 06:01:59 10° NNW 06:05:10 15° NNE 06:08:21 10° ENE
Cosmos 1666 Rocket 3.8 06:01:50 10° N 06:06:19 75° ENE 06:10:44 10° SSE
NOSS 2-1 (E) 3.8 06:04:49 23° W 06:06:39 40° NNW 06:10:38 10° NE
STARLINK-1140 3.0 06:05:24 25° WNW 06:07:09 76° N 06:10:24 10° E
STARLINK-1170 2.4 06:06:28 29° WNW 06:07:37 75° N 06:10:16 10° E
STARLINK-1156 3.0 06:07:28 23° WNW 06:09:18 76° N 06:12:32 10° E
NOSS 2-2 (C) 4.5 06:04:01 10° NW 06:09:25 86° SW 06:16:58 10° SE
SL-08 R/B 4.5 06:03:53 10° N 06:10:06 89° W 06:16:12 10° S
Cosmos 1864 Rocket 4.5 06:04:43 10° N 06:10:54 90° ENE 06:17:04 10° S
STARLINK-1148 3.0 06:09:28 22° WNW 06:11:24 77° N 06:14:38 10° E
Cosmos 2221 2.9 06:08:17 10° SW 06:12:17 39° WNW 06:16:21 10° N
Helios 1A Rocket 4.0 06:08:16 10° NNE 06:12:20 49° E 06:16:21 10° S
MOS 1-B 4.3 06:06:35 10° NNE 06:12:26 81° WNW 06:18:15 10° SSW
STARLINK-1158 3.0 06:11:38 21° WNW 06:13:39 77° N 06:16:54 10° E
SL-16 R/B 3.0 06:10:17 16° W 06:14:09 33° NW 06:19:17 10° NNE
Aureole 2 Rocket 3.3 06:14:56 20° W 06:15:34 22° WSW 06:18:03 10° SSW
FENGYUN 3A 3.7 06:13:18 10° N 06:18:40 61° WNW 06:24:01 10° SSW
Cosmos 1190 Rocket 4.0 06:15:01 10° SSW 06:20:18 78° WNW 06:25:40 10° NNE
H-2A R/B 3.7 06:17:45 10° NNE 06:21:28 51° E 06:25:06 10° S
Cosmos 2369 Rocket 3.1 06:18:34 10° NW 06:23:18 28° WSW 06:28:03 10° SSW
Cosmos 614 Rocket 4.1 06:21:29 10° SW 06:26:33 56° WNW 06:31:42 10° NNE
SL-16 R/B 4.5 06:24:51 10° NNW 06:27:07 12° NNE 06:29:23 10° NE
STARLINK-1179 2.3 06:25:41 17° WNW 06:27:33 87° N 06:30:09 10° ESE
Cosmos 1862 3.4 06:23:44 10° NNW 06:27:37 53° W 06:31:28 10° S
STARLINK-1176 2.3 06:26:08 17° WNW 06:28:01 87° N 06:30:38 10° ESE
Cosmos 2016 Rocket 4.0 06:22:21 10° NNW 06:28:28 60° W 06:34:37 10° S
Cosmos 1603 3.8 06:24:20 10° SW 06:30:01 63° NW 06:35:41 10° NNE
CZ-4B DEB 4.2 06:25:22 10° N 06:30:48 63° WNW 06:36:11 10° SSW
Cosmos 468 Rocket 4.2 06:26:41 10° NNW 06:32:03 79° ENE 06:37:21 10° SSE
Cosmos 1943 3.2 06:30:24 10° SW 06:36:00 70° WNW 06:41:40 10° NNE
SMAP 3.8 06:32:02 10° NNE 06:36:41 60° ESE 06:41:17 10° S
NOSS 3-4 (A) 4.2 06:30:51 10° NW 06:37:34 63° NE 06:44:59 10° ESE
Cosmos 676 Rocket 4.1 06:32:14 10° SSW 06:37:35 88° WNW 06:42:58 10° NNE
NOSS 3-4 (C) 4.2 06:30:57 10° NW 06:37:40 63° NE 06:45:05 10° ESE
Cosmos 1633 3.7 06:36:25 10° NW 06:39:19 23° W 06:42:12 10° SW
Cosmos 1484 Rocket 4.1 06:36:39 10° NNW 06:39:36 21° WNW 06:42:34 10° WSW
CZ-4B R/B 3.1 06:35:24 10° NNE 06:40:45 76° WNW 06:46:02 10° SSW
SJ-7 4.5 06:37:33 10° N 06:41:48 65° WNW 06:45:59 10° SSW
Cosmos 1656 Rocket 4.2 06:38:27 10° NW 06:43:39 38° WSW 06:48:50 10° S
COSMOS 2455 3.7 06:39:36 10° NNW 06:45:28 49° NE 06:51:18 10° ESE
Cosmos 1470 Rocket 3.7 06:41:34 10° N 06:46:03 87° E 06:50:31 10° S
Cosmos 2233 Rocket 4.0 06:40:27 10° NNW 06:46:43 79° W 06:53:01 10° S
NOAA 6 4.1 06:43:12 10° N 06:48:18 58° WNW 06:53:22 10° SW
Cosmos 2333 Rocket 4.3 06:46:20 10° NNW 06:48:30 12° N 06:50:40 10° NNE
STARLINK-1153 2.7 06:45:59 10° WNW 06:48:56 83° SSW 06:51:51 10° ESE
STARLINK-1180 2.7 06:46:12 10° WNW 06:49:09 83° SSW 06:52:06 10° ESE
STARLINK-1174 2.7 06:46:39 10° WNW 06:49:35 82° SSW 06:52:31 10° ESE
STARLINK-1139 2.7 06:46:53 10° WNW 06:49:49 82° SSW 06:52:45 10° ESE
STARLINK-1133 2.7 06:47:06 10° WNW 06:50:02 82° SSW 06:52:58 10° ESE
STARLINK-1151 2.7 06:47:20 10° WNW 06:50:16 82° SSW 06:53:12 10° ESE
STARLINK-1160 2.7 06:48:01 10° WNW 06:50:57 81° SSW 06:53:53 10° ESE
STARLINK-1161 2.7 06:48:15 10° WNW 06:51:11 81° SSW 06:54:06 10° ESE
STARLINK-1145 2.7 06:48:27 10° WNW 06:51:24 81° SSW 06:54:20 10° ESE
STARLINK-1172 2.7 06:48:40 10° WNW 06:51:37 81° SSW 06:54:33 10° ESE
Sich 1 3.8 06:47:54 10° NNW 06:51:40 30° W 06:55:24 10° SSW
CZ-4 R/B 4.2 06:48:37 10° NE 06:51:56 24° E 06:55:11 10° SSE
STARLINK-1182 2.7 06:49:08 10° WNW 06:52:04 81° SSW 06:55:00 10° ESE
STARLINK-1164 2.7 06:49:21 10° WNW 06:52:17 80° SSW 06:55:13 10° ESE
STARLINK-1168 2.7 06:49:35 10° WNW 06:52:31 80° SSW 06:55:27 10° ESE
STARLINK-1162 2.9 06:49:35 10° WNW 06:52:46 83° SSW 06:55:55 10° ESE
STARLINK-1183 2.7 06:50:15 10° WNW 06:53:11 80° SSW 06:56:06 10° ESE
STARLINK-1181 2.7 06:50:28 10° WNW 06:53:24 80° SSW 06:56:20 10° ESE
STARLINK-1196 2.7 06:51:09 10° WNW 06:54:06 79° SSW 06:57:02 10° ESE
Cosmos 1346 Rocket 2.7 06:50:16 10° NNW 06:54:12 79° W 06:58:05 10° S
STARLINK-1186 2.7 06:51:37 10° WNW 06:54:33 79° SSW 06:57:28 10° ESE
STARLINK-1157 2.9 06:51:29 10° WNW 06:54:40 82° SSW 06:57:50 10° ESE
STARLINK-1185 2.7 06:51:49 10° WNW 06:54:45 79° SSW 06:57:41 10° ESE
